Torna al catalogo

STARLINK-35779

AttivoComunicazioniVLEO
NORAD 67047·PAYLOAD·🇺🇸 United States

Lanciato Dec 11, 2025 da Cape Canaveral Space Force Station

Loading…

Prossimi Passaggi (prossime 24 ore)

TLE

AggiornatoSource: CelesTrak SupGP

Epoca: Sep 15, 2026, 03:47 UTC

1 67047C 25294T   26258.15812500 -.00015567  00000+0 -56371-3 0  2589
2 67047  43.0045  47.9781 0001592 260.3103 215.5344 15.27593708    12

Traccia STARLINK-35779 in tempo reale con AllMySat

Download on the App Store